Location: Nagano
(36.1121°N, 137.9502°E)
Time: 15:30:18
(UTC+09:00)

X-37B - Visible Passes

Search period start: 18 June 2021 00:00
Search period end: 28 June 2021 00:00
Orbit: 386 x 389 km, 45.0° (Epoch: 10 June)

Date Brightness Start Highest point End Pass type
(mag) Time Alt. Az. Time Alt. Az. Time Alt. Az.
18 Jun 3.5 02:07:14 10° NW 02:09:19 16° N 02:11:23 10° NE visible
18 Jun 2.9 03:43:54 10° NW 03:46:39 26° NNE 03:49:23 10° ENE visible
19 Jun 3.5 01:11:01 17° N 01:11:01 17° N 01:12:52 10° NE visible
19 Jun 3.3 02:45:39 10° NW 02:48:05 20° NNE 02:50:31 10° ENE visible
20 Jun 3.6 01:47:22 10° NW 01:49:29 17° N 01:51:39 10° NE visible
20 Jun 2.0 03:23:39 10° NW 03:26:41 40° NNE 03:29:41 10° E visible
21 Jun 3.8 00:51:42 15° NNE 00:51:42 15° NNE 00:52:55 10° NE visible
21 Jun 2.8 02:25:26 10° NW 02:28:11 26° NNE 02:30:56 10° ENE visible
21 Jun 0.7 04:01:52 10° WNW 04:04:58 53° SW 04:08:03 10° SE visible
22 Jun 3.3 01:28:51 18° N 01:29:37 20° NNE 01:32:04 10° ENE visible
22 Jun 0.7 03:03:27 10° WNW 03:06:38 75° NNE 03:09:47 10° ESE visible
22 Jun 2.5 19:38:48 10° SSE 19:40:19 13° SE 19:41:51 10° ESE visible
22 Jun 0.8 21:13:26 10° WSW 21:16:21 68° WNW 21:16:21 68° WNW visible
23 Jun 1.9 02:07:15 31° NNW 02:08:13 40° NNE 02:11:14 10° E visible
23 Jun 1.6 03:42:03 10° W 03:44:44 25° SW 03:47:25 10° SSE visible
23 Jun 0.6 20:15:11 10° SW 20:18:16 53° SE 20:21:23 10° ENE visible
23 Jun 2.8 21:52:18 10° WNW 21:55:03 26° NNW 21:55:49 24° N visible
24 Jun 1.4 02:47:28 35° SSE 02:47:28 35° SSE 02:49:34 10° SE visible
24 Jun 2.0 20:53:32 10° W 20:56:33 40° NNW 20:59:35 10° NE visible
24 Jun 3.6 22:31:35 10° NW 22:33:36 17° N 22:33:36 17° N visible
25 Jun 0.8 19:54:58 10° WSW 19:58:09 74° NNW 20:01:18 10° ENE visible
25 Jun 3.3 21:32:42 10° WNW 21:35:09 20° NNW 21:37:36 10° NE visible
25 Jun 4.1 23:10:22 10° NW 23:10:28 10° NW 23:10:28 10° NW visible
26 Jun 2.9 20:33:50 10° WNW 20:36:35 26° NNW 20:39:21 10° NE visible
26 Jun 3.5 22:11:50 10° NW 22:13:55 16° N 22:14:40 15° NNE visible
27 Jun 2.1 19:35:04 10° W 19:38:05 40° NNW 19:41:07 10° NE visible
27 Jun 3.5 21:13:07 10° NW 21:15:17 17° N 21:17:28 10° NE visible
27 Jun 3.9 22:50:14 10° NW 22:50:58 14° NNW 22:50:58 14° NNW visible
